[[{"header":{"parameterUnit":"m.s-1","parameterCategory":1,"la1":30.2991,"la2":30.254,"lo1":-89.0895,"lo2":-89.0444,"dy":0.0017,"dx":0.0017,"nx":28,"ny":28,"refTime":"2023-09-11T03:00:00:Z","depth":0,"parameterNumber":2,"parameterNumberName":"U-component_of_WINDS"},"data":[0,0,0,0,0,0,0,0,0,0,0,0,0,0,0,0,0,0,0,0,0,0,0,0,0,0,0,0,0,0,0,0,0,0,0,0,0,0,0,0,0,0,0,0,0,0,0,0,0,0,0,0,0,0,0,0,0,0,1.1187,1.1188,0,1.1292,1.1293,1.1294,1.1318,1.1317,1.1317,1.1316,1.1422,1.1425,1.1429,0,0,0,0,0,0,0,0,0,0,0,0,0,1.1004,1.1008,1.1187,1.1188,1.1189,1.1292,1.1293,1.1294,1.1318,1.1317,1.1316,1.1316,1.1421,1.1425,1.1429,0,0,0,0,0,0,0,0,0,0,0,0,0,1.1094,1.1009,1.1187,1.1214,1.1217,1.1291,1.1293,1.1295,1.1318,1.1317,1.1316,1.1315,1.1419,1.1424,1.143,1.1484,0,0,1.1446,1.1448,0,0,0,0,0,0,0,0,1.1089,1.1101,1.1208,1.1212,1.1216,1.1291,1.1268,1.1358,1.1319,1.128,1.1316,1.1315,1.1379,1.1388,1.141,1.1489,1.1493,1.1446,1.1449,1.1452,1.1453,0,0,0,0,0,0,0,1.1083,1.1096,1.1228,1.121,1.1215,1.122,1.1231,1.1285,1.1334,1.1283,1.1285,1.1297,1.1381,1.1404,1.1412,1.1495,1.1446,1.1451,1.1454,1.1456,1.1622,1.1623,0,0,0,0,0,0,1.1072,1.1091,1.1225,1.1231,1.1148,1.1224,1.1237,1.1268,1.1334,1.1343,1.1298,1.1298,1.1396,1.1406,1.1416,1.1482,1.1452,1.1457,1.146,1.1621,1.1622,1.1624,0,0,0,0,0,0,1.1068,1.1084,1.1221,1.1162,1.118,1.1228,1.1263,1.127,1.1294,1.1345,1.1354,1.1313,1.1396,1.1409,1.1466,1.1486,1.1459,1.1464,1.1619,1.1621,1.1623,1.1616,0,0,0,0,0,0,1.1063,1.1082,1.1104,1.1162,1.1183,1.127,1.1264,1.1273,1.1303,1.1304,1.1362,1.137,1.1396,1.1459,1.1472,1.1493,1.1468,1.1618,1.162,1.1622,1.1615,1.1617,1.162,0,0,0,0,0,1.1056,1.1098,1.1105,1.1121,1.1211,1.1271,1.1283,1.1312,1.1305,1.1326,1.1359,1.1368,1.1482,1.1464,1.1479,1.1503,1.1616,1.1619,1.1622,1.1613,1.1617,1.162,0,0,0,0,0,0,1.104,1.1106,1.1114,1.1177,1.1218,1.1275,1.1303,1.1315,1.1359,1.1358,1.1392,1.1404,1.146,1.1487,1.1466,1.1557,1.1549,1.1555,1.1537,1.1541,1.1543,1.1535,1.1472,0,0,0,0,0,1.1044,1.1088,1.1143,1.1193,1.1213,1.1255,1.1282,1.1301,1.1345,1.1362,1.1399,1.1441,1.1486,1.1516,1.156,1.1619,1.1631,1.1642,1.1645,1.1647,1.1651,1.1682,1.1688,1.1633,1.1633,1.1633,0,0,1.1052,1.1094,1.1119,1.119,1.1225,1.1269,1.1269,1.1316,1.1348,1.1369,1.1426,1.1454,1.1503,1.1561,1.1589,1.1586,1.1669,1.165,1.1652,1.1655,1.1686,1.1691,1.1696,1.1635,1.1634,1.1634,0,0,1.1089,1.1126,1.117,1.1205,1.1257,1.1284,1.1294,1.135,1.1369,1.1427,1.1443,1.1482,1.1559,1.1593,1.162,1.1669,1.1678,1.1683,1.1695,1.1726,1.173,1.1734,1.1749,1.1755,1.1687,1.1687,1.1687,0,1.1092,1.116,1.1191,1.1237,1.1267,1.1288,1.1333,1.1364,1.1428,1.1448,1.1444,1.1541,1.1575,1.1641,1.1652,1.1674,1.1686,1.1676,1.1727,1.1731,1.1735,1.175,1.1756,1.1687,1.1687,1.1687,1.1687,0,1.116,1.1207,1.1236,1.1297,1.1331,1.1376,1.1412,1.1442,1.1458,1.1485,1.1542,1.1585,1.1637,1.1655,1.1671,1.1722,1.1718,1.172,1.1712,1.174,1.1755,1.1761,1.1687,1.1687,1.1687,1.1687,0,0,1.119,1.1267,1.1277,1.1305,1.1364,1.1399,1.1445,1.1496,1.152,1.1564,1.1601,1.1666,1.1668,1.1699,1.1719,1.1745,1.1779,1.1744,1.1746,1.1747,1.1836,1.1832,1.1839,1.1786,1.1787,1.1788,1.1831,0,1.1232,1.1314,1.1343,1.141,1.1453,1.1473,1.1512,1.1552,1.1578,1.1617,1.1647,1.1691,1.1691,1.171,1.1737,1.1769,1.1796,1.1766,1.182,1.1821,1.1805,1.1847,1.1844,1.1882,1.1837,1.1838,1.1839,0,1.1293,1.1337,1.1408,1.146,1.1479,1.1514,1.1563,1.1601,1.1645,1.1663,1.1697,1.1714,1.1761,1.1751,1.1815,1.1794,1.1817,1.1836,1.1838,1.1843,1.1831,1.1851,1.1895,1.19,1.1848,1.1848,1.1847,0,1.1305,1.1382,1.1434,1.1457,1.152,1.1543,1.1571,1.1615,1.1643,1.1686,1.1705,1.1752,1.1778,1.1814,1.1843,1.1833,1.1904,1.1897,1.1918,1.1917,1.1931,1.1929,1.1978,1.1949,1.1948,1.1948,1.1948,0,1.1349,1.1391,1.144,1.1472,1.1519,1.1552,1.1598,1.1626,1.1665,1.1702,1.1723,1.1757,1.1795,1.1833,1.1857,1.1905,1.1917,1.1931,1.1936,1.1928,1.1926,1.1943,1.1941,1.195,1.195,1.1949,1.1949,0,1.1369,1.1404,1.1462,1.1517,1.1532,1.1564,1.161,1.1641,1.1669,1.1715,1.1727,1.177,1.1817,1.185,1.191,1.1926,1.1977,1.1983,1.1961,1.1964,1.1983,1.198,1.2043,1.2052,1.2018,1.2018,1.2018,0,1.1394,1.1427,1.1485,1.1511,1.1539,1.1581,1.161,1.1644,1.1673,1.1726,1.175,1.1798,1.1838,1.1911,1.1947,1.1992,1.1999,1.2017,1.2005,1.1996,1.1997,1.1994,1.1997,1.2019,1.2019,1.2019,1.2019,0,1.1433,1.1449,1.1491,1.1539,1.1573,1.1612,1.1652,1.1672,1.1712,1.1744,1.1791,1.1822,1.1883,1.193,1.1979,1.2005,1.2018,1.2023,1.203,1.2021,1.2007,1.2013,1.1964,1.2021,1.2021,1.2021,1.2021,1.202,1.1456,1.1485,1.1531,1.1576,1.1609,1.1645,1.1677,1.1708,1.1749,1.1801,1.1818,1.1867,1.191,1.1977,1.2004,1.2042,1.2042,1.2052,1.2055,1.2056,1.2055,1.2002,1.2052,1.2052,1.2052,1.2052,1.2052,0,1.1495,1.1525,1.1567,1.1621,1.1656,1.1667,1.171,1.1739,1.1782,1.1821,1.186,1.1914,1.1959,1.1998,1.2045,1.2068,1.2074,1.2078,1.2076,1.2082,1.2054,1.2042,1.2072,1.2072,1.2072,1.2072,1.2072,1.2072,1.1519,1.1569,1.159,1.1656,1.1686,1.1735,1.1758,1.1791,1.1823,1.1882,1.192,1.1945,1.1984,1.2033,1.2075,1.2085,1.21,1.2103,1.2114,1.2087,1.2084,1.2082,1.2071,1.2106,1.2106,1.2139,1.2139,1.2139]},{"header":{"parameterUnit":"m.s-1","parameterCategory":1,"la1":30.2991,"la2":30.254,"lo1":-89.0895,"lo2":-89.0444,"dy":0.0017,"dx":0.0017,"nx":28,"ny":28,"refTime":"2023-09-11T03:00:00:Z","depth":0,"parameterNumber":3,"parameterNumberName":"V-component_of_WINDS"},"data":[0,0,0,0,0,0,0,0,0,0,0,0,0,0,0,0,0,0,0,0,0,0,0,0,0,0,0,0,0,0,0,0,0,0,0,0,0,0,0,0,0,0,0,0,0,0,0,0,0,0,0,0,0,0,0,0,0,0,2.3174,2.3172,0,2.3035,2.3033,2.3032,2.2937,2.2936,2.2935,2.2934,2.2789,2.2786,2.2783,0,0,0,0,0,0,0,0,0,0,0,0,0,2.3351,2.3348,2.3174,2.3172,2.317,2.3035,2.3033,2.3031,2.2937,2.2936,2.2935,2.2934,2.279,2.2786,2.2782,0,0,0,0,0,0,0,0,0,0,0,0,0,2.3249,2.3347,2.3174,2.3107,2.3099,2.3036,2.3033,2.3031,2.2937,2.2936,2.2935,2.2934,2.2791,2.2786,2.2782,2.2773,0,0,2.2767,2.2765,0,0,0,0,0,0,0,0,2.3255,2.3243,2.3118,2.3111,2.3103,2.3002,2.3042,2.2944,2.2937,2.2998,2.2934,2.2933,2.286,2.285,2.2826,2.2766,2.276,2.2766,2.2764,2.2761,2.276,0,0,0,0,0,0,0,2.3263,2.3248,2.3119,2.3117,2.3107,2.3082,2.3066,2.3023,2.2937,2.2993,2.2986,2.2971,2.2856,2.2831,2.2822,2.2758,2.2767,2.2762,2.2759,2.2757,2.2679,2.268,0,0,0,0,0,0,2.3281,2.3255,2.3123,2.3114,2.3178,2.308,2.3062,2.3035,2.2937,2.2921,2.2972,2.2967,2.284,2.2828,2.2816,2.2796,2.2761,2.2757,2.2754,2.2678,2.268,2.268,0,0,0,0,0,0,2.3285,2.327,2.3129,2.3183,2.3163,2.3078,2.3048,2.3033,2.3008,2.2921,2.2905,2.2963,2.2838,2.2823,2.2784,2.279,2.2755,2.275,2.2678,2.2679,2.268,2.2759,0,0,0,0,0,0,2.329,2.3272,2.3269,2.3183,2.316,2.31,2.3049,2.3031,2.3,2.2993,2.2908,2.2893,2.2836,2.2791,2.2779,2.2783,2.2747,2.2676,2.2678,2.268,2.2755,2.2762,2.2769,0,0,0,0,0,2.3297,2.3297,2.3269,2.3254,2.3155,2.3101,2.3087,2.3023,2.3002,2.2996,2.294,2.2896,2.2792,2.2788,2.2773,2.2776,2.2676,2.2678,2.2679,2.2752,2.2761,2.2769,0,0,0,0,0,0,2.3384,2.3284,2.3253,2.3225,2.3172,2.3085,2.3077,2.3035,2.2987,2.2981,2.2903,2.2884,2.2852,2.281,2.2808,2.276,2.2728,2.2727,2.2789,2.2796,2.2803,2.2813,2.2743,0,0,0,0,0,2.3401,2.3366,2.328,2.3264,2.3239,2.3163,2.3137,2.3092,2.3034,2.301,2.2951,2.2895,2.2849,2.2821,2.2775,2.2749,2.2728,2.2744,2.2751,2.2757,2.2756,2.2736,2.2741,2.2687,2.2686,2.2686,0,0,2.3433,2.3374,2.3357,2.328,2.3233,2.3197,2.3144,2.311,2.3081,2.3005,2.2963,2.2918,2.285,2.2817,2.2799,2.2781,2.2766,2.2759,2.2764,2.276,2.2738,2.2743,2.2748,2.2688,2.2688,2.2687,0,0,2.3473,2.3427,2.3407,2.3361,2.3292,2.3241,2.3237,2.3155,2.3122,2.308,2.3021,2.2986,2.291,2.2863,2.2829,2.2851,2.2806,2.2838,2.2872,2.2854,2.2858,2.2862,2.2866,2.2869,2.2838,2.2838,2.2838,0,2.3522,2.3467,2.3401,2.3369,2.3335,2.3265,2.3242,2.3202,2.3121,2.3098,2.3079,2.2981,2.293,2.2883,2.2889,2.2865,2.2854,2.2846,2.2863,2.2866,2.2868,2.2871,2.2874,2.2842,2.2841,2.2841,2.2841,0,2.3529,2.3491,2.3483,2.3407,2.3373,2.3346,2.3273,2.3246,2.3205,2.3155,2.3111,2.3049,2.2987,2.2973,2.2932,2.2919,2.291,2.2879,2.2844,2.2878,2.288,2.2881,2.2848,2.2846,2.2845,2.2844,0,0,2.3619,2.3506,2.3504,2.3467,2.3386,2.3354,2.3324,2.3264,2.3241,2.3187,2.3157,2.3094,2.3064,2.3025,2.2978,2.2963,2.298,2.2932,2.293,2.2941,2.2958,2.2981,2.2983,2.2951,2.2951,2.2951,2.2963,0,2.3644,2.3585,2.3524,2.3486,2.3449,2.3382,2.3354,2.33,2.3253,2.3213,2.3161,2.3116,2.3081,2.3057,2.3039,2.2982,2.2982,2.2981,2.2919,2.2918,2.2936,2.2985,2.3008,2.3023,2.2964,2.2964,2.2964,0,2.3665,2.3615,2.3574,2.3493,2.3475,2.3452,2.3391,2.3355,2.3291,2.3258,2.3215,2.3165,2.3126,2.3099,2.3043,2.3043,2.3014,2.2983,2.2981,2.2971,2.2941,2.2972,2.3026,2.3027,2.2965,2.2965,2.2965,0,2.3731,2.3653,2.3617,2.3589,2.3495,2.348,2.344,2.3375,2.3343,2.3289,2.3267,2.321,2.3178,2.3134,2.3069,2.3055,2.3018,2.2986,2.2987,2.2988,2.298,2.2981,2.3026,2.2967,2.2967,2.2967,2.2967,0,2.3764,2.374,2.3645,2.3623,2.3594,2.3524,2.3496,2.345,2.3393,2.3359,2.3298,2.3267,2.3184,2.3143,2.3092,2.3051,2.3038,2.3008,2.2994,2.3012,2.3015,2.299,2.2986,2.2967,2.2967,2.2967,2.2967,0,2.3831,2.3768,2.3723,2.3639,2.3617,2.3598,2.3525,2.3499,2.3449,2.3407,2.3392,2.3313,2.3261,2.3192,2.3119,2.3084,2.3049,2.3029,2.307,2.3062,2.3065,2.3065,2.3094,2.3093,2.3038,2.3038,2.3039,0,2.3855,2.3835,2.3748,2.3722,2.3684,2.3642,2.3608,2.3538,2.3505,2.343,2.3413,2.3357,2.3307,2.3227,2.3161,2.3104,2.308,2.3095,2.3071,2.3089,2.3077,2.3077,2.3074,2.31,2.3101,2.3101,2.3102,0,2.3903,2.3872,2.3826,2.377,2.3731,2.3683,2.3631,2.3613,2.3531,2.3497,2.3444,2.3406,2.333,2.3274,2.3208,2.3164,2.3118,2.311,2.3107,2.3123,2.3147,2.3131,2.3083,2.3109,2.3108,2.3108,2.3108,2.3107,2.3946,2.3925,2.386,2.381,2.3765,2.3718,2.3689,2.3635,2.359,2.3523,2.3485,2.3432,2.3366,2.3273,2.3232,2.3188,2.317,2.3166,2.3165,2.3164,2.3168,2.3156,2.3176,2.3175,2.3175,2.3175,2.3175,0,2.3988,2.3943,2.3899,2.3829,2.3789,2.3752,2.3693,2.3662,2.3617,2.356,2.3513,2.345,2.3395,2.3325,2.3264,2.3242,2.322,2.3228,2.3228,2.3218,2.3189,2.3196,2.3248,2.3248,2.3248,2.3248,2.3248,2.3248,2.4005,2.3965,2.3927,2.3863,2.3817,2.3766,2.3735,2.369,2.3644,2.3577,2.3531,2.3487,2.3424,2.3358,2.3305,2.3285,2.3264,2.3279,2.3253,2.3227,2.322,2.3214,2.3221,2.3276,2.3276,2.3285,2.3285,2.3285]}]]